Regional Weather Roundup
Issued by NWS Albany, NY

Home | Current Version | Previous Version | Text Only | Print | Product List | Glossary On
Versions: 1 2 3 4 5 6 7 8 9 10 11 12 13 14 15 16 17 18 19 20 21 22 23 24 25 26 27 28 29 30 31 32 33 34 35 36 37 38 39 40 41 42 43 44 45 46 47 48 49 50
000
ASUS41 KALY 220310
RWRALY

NEW YORK STATE HOURLY WEATHER ROUNDUP
NATIONAL WEATHER SERVICE ALBANY NY
1000 PM EST TUE FEB 21 2017

NOTE: "FAIR" INDICATES FEW OR NO CLOUDS BELOW 12,000 FEET WITH NO
SIGNIFICANT WEATHER AND/OR NO OBSTRUCTIONS TO VISIBILITY.

NYZ032-033-038>043-046>054-057>066-NYZ062>081-082-084-220400-
EAST


CITY           SKY/WX    TMP DP  RH WIND       PRES   REMARKS
ALBANY         CLOUDY    42  26  53 S12       30.09F
GLENS FALLS    CLOUDY    41  23  48 SW6       30.07F
POUGHKEEPSIE   NOT AVBL
NEWBURGH       MOCLDY    41  32  70 CALM      30.15F
ISLIP          CLOUDY    40  35  83 SW7       30.18F
NEW YORK CITY  CLOUDY    44  32  62 SW12      30.17F
CENTRAL PARK   CLOUDY    43  32  65 MISG      30.19F
$$

NYZ005>009-017-018-044>046-055-056-220400-
CENTRAL


CITY           SKY/WX    TMP DP  RH WIND       PRES   REMARKS
FULTON         CLOUDY    40  33  76 CALM      29.99F
SYRACUSE       CLOUDY    43  33  68 S10       30.00F
ROME           CLOUDY    39  28  64 SE3       30.05S
ELMIRA         NOT AVBL
BINGHAMTON     NOT AVBL
$$

NYZ026>034-041>043-087-220400-
NORTH


CITY           SKY/WX    TMP DP  RH WIND       PRES   REMARKS
WATERTOWN      CLOUDY    44  32  62 S12G18    29.96F
FORT DRUM      NOT AVBL
OGDENSBURG     DRIZZLE   42  30  64 S8        29.94F
MASSENA        CLOUDY    33  29  85 CALM      29.96F
SARANAC LAKE   CLOUDY    38  23  55 SW8       29.95S WCI  32
PLATTSBURGH    NOT AVBL
$$

NYZ001>004-010>016-019>021-085-220400-
WEST


CITY           SKY/WX    TMP DP  RH WIND       PRES   REMARKS
NIAGARA FALLS  CLOUDY    48  43  82 SW3       29.96R
BUFFALO        CLOUDY    45  42  89 SW9       29.96S
DUNKIRK        CLOUDY    48  44  86 S5        29.98S
JAMESTOWN      CLOUDY    48  32  53 S7        29.97S
WELLSVILLE     CLOUDY    46  27  47 SW6       30.00S
ROCHESTER      CLOUDY    49  37  63 SW9       29.96R
PENN YAN       CLOUDY    46  26  45 S9        29.99R
$$

             KEY
       WCI = WIND CHILL INDEX
       VSB = VISIBILITY
       HX  = HEAT INDEX
$$



USA.gov is the U.S. government's official web portal to all federal, state and local government web resources and services.